Regional Weather Roundup
Issued by NWS Upton, NY

Current Version | Previous Version | Text Only | Print | Product List | Glossary On
Versions: 1 2 3 4 5 6 7 8 9 10 11 12 13 14 15 16 17 18 19 20 21 22 23 24 25 26 27
000 ASUS41 KOKX 231608 RWROKX REGIONAL WEATHER ROUNDUP NATIONAL WEATHER SERVICE NEW YORK NY 1200 PM EDT THU MAR 23 2017 NOTE: "FAIR" INDICATES FEW OR NO CLOUDS BELOW 12,000 FEET WITH NO SIGNIFICANT WEATHER AND/OR OBSTRUCTIONS TO VISIBILITY. NYZ071-072-176-178-NJZ106-104-231700- NEW YORK CITY METRO AREA CITY SKY/WX TMP DP RH WIND PRES REMARKS Central Park SUNNY 32 0 25 VRB3 30.61F Wall St Helipt SUNNY 37 3 23 SW9 30.61F WCI 31 LaGuardia APRT SUNNY 34 1 24 NW9 30.60F WCI 27 Kennedy INTL SUNNY 35 0 22 NW7 30.61F WCI 29 Breezy Point N/A 32 N/A N/A W9 N/A WCI 24 Newark/Liberty SUNNY 36 -1 21 NW9 30.61F WCI 29 Teterboro SUNNY 33 0 24 MISG 30.60F $$ NYZ177-179-078>081-231700- LONG ISLAND NEW YORK CITY SKY/WX TMP DP RH WIND PRES REMARKS Jones Beach N/A 32 N/A N/A NW10G18 N/A WCI 24 Matinecock PT NOT AVBL Farmingdale SUNNY 33 0 24 NW10G18 30.58F WCI 25 MacArthur/ISP SUNNY 33 -2 22 NW15G22 30.57S WCI 23 Shirley SUNNY 33 0 24 NW12G20 30.57F WCI 24 Westhampton SUNNY 32 -3 22 NW13G21 30.57F WCI 22 East Hampton N/A 29 -2 25 NW13G18 30.54F WCI 19 Montauk N/A 31 2 29 W8G18 30.55F WCI 23 $$ NYZ052-065-067-231700- HUDSON VALLEY CITY SKY/WX TMP DP RH WIND PRES REMARKS White Plains SUNNY 31 -1 25 W8 30.56S WCI 23 Newburgh NOT AVBL Montgomery SUNNY 31 -3 23 CALM 30.54F Poughkeepsie SUNNY 28 -1 28 W5 30.57F WCI 23 Albany SUNNY 30 1 29 NW12G21 30.56F WCI 20 $$ NJZ001-105-106-008-010-013-015-019>022-104-231700- NEW JERSEY CITY SKY/WX TMP DP RH WIND PRES REMARKS Newark/Liberty SUNNY 36 -1 21 NW9 30.61F WCI 29 Teterboro SUNNY 33 0 24 MISG 30.60F Caldwell SUNNY 33 -2 22 NE6 30.60F WCI 28 Somerville SUNNY 34 2 25 N8 30.60F WCI 27 Linden N/A 34 0 23 N5 30.62F WCI 30 Sussex SUNNY 31 -1 25 W10 30.57F WCI 22 Andover N/A 31 -2 24 MISG 30.57F Trenton SUNNY 35 7 31 W6 30.61F WCI 30 Millville SUNNY 36 7 29 CALM 30.63F Atlantic City SUNNY 38 5 25 NW9 30.63S WCI 31 Wrightstown SUNNY 35 5 28 NW8 30.60S WCI 28 Toms River SUNNY 36 0 21 NW10G18 30.62F WCI 28 Belmar SUNNY 35 -2 20 NW9G23 30.61F WCI 28 $$ PAZ047>061-062-071-231700- EASTERN PENNSYLVANIA CITY SKY/WX TMP DP RH WIND PRES REMARKS Philadelphia SUNNY 36 7 29 VRB3 30.64F Allentown SUNNY 34 5 29 CALM 30.61F Scranton SUNNY 28 4 35 CALM 30.57F $$ CTZ002-004>006-009-010-012-RIZ004-006-007-MAZ004-011-015-231700- SOUTHERN NEW ENGLAND IN CT CITY SKY/WX TMP DP RH WIND PRES REMARKS Bradley INTL SUNNY 31 -3 23 VRB6 30.52F WCI 25 Hartford SUNNY 30 0 27 VRB3 30.54F Danbury SUNNY 30 -3 24 NW12G20 30.56S WCI 20 Wtrbury/Oxford SUNNY 28 -2 26 NW12G21 30.53S WCI 18 Bridgeport SUNNY 34 -5 18 NW12G20 30.56F WCI 25 Meriden SUNNY 33 -2 22 N15 30.53F WCI 23 New Haven SUNNY 33 -1 23 N7G17 30.55F WCI 27 Chester N/A 30 -6 21 NW12G17 30.51F WCI 21 Groton SUNNY 32 -4 21 NW14G22 30.53F WCI 22 Wilimantic SUNNY 30 -1 26 NW8G17 30.53F WCI 22 IN RI CITY SKY/WX TMP DP RH WIND PRES REMARKS Providence SUNNY 31 -5 21 NW12G21 30.50F WCI 22 Block Island SUNNY 29 3 33 W14G20 30.52F WCI 18 Westerly SUNNY 32 -4 21 W8 30.53F WCI 25 IN MA CITY SKY/WX TMP DP RH WIND PRES REMARKS Boston SUNNY 29 -2 26 W14 30.48F WCI 18 Worcester SUNNY 26 -7 23 W13G24 30.42F WCI 15 Westfield SUNNY 32 -2 23 VRB5 30.49F WCI 27 Provincetown SUNNY 29 8 41 NW20G28 30.46F WCI 16 Nantucket SUNNY 29 1 30 NW17 30.47F WCI 17 $$ ANZ330-335-338-340-345-350-353-355-231700- COASTAL MARINE OBSERVATIONS STATION/POSITION TIME SKY/WX TEMP WIND PRES VSBY WAVE AIR SEA DIR/SP/G HT/PER (UTC) (F) (DEG/KT/KT) (MB) (MI) (FT/S) NY HARB ENTRANCE 1550 29 41 310/ 12/ 16 1036.5 1/ 3 20 S FIRE ISLAND 1550 28 40 320/ 10/ 16 1036.1 2/ 4 GREAT SOUTH BAY NOT AVBL 23 SSW MONTAUK P 1450 26 42 1035.5 3/ 4 15 E BARNEGAT LI 1530 42 N/A 2/ 4 HUDSON CANYON 1450 30 45 340/ 19/ 25 1035.9 6/ 6 KINGS POINT 1542 30 37 1036.0 EXECUTION ROCKS NOT AVBL CENTRAL LI SOUND 1530 27 290/ 8/ 10 N/A 2/ 3 EASTERN LI SOUND NOT AVBL ROBBINS REEF 1542 30 340/ 9/ 14 1036.6 $$ >>>>>>>>>>>>>>>>>>>>>>>>>>>> KEY <<<<<<<<<<<<<<<<<<<<<<<<<<< > < > SKY/WX - Sky Condition/Present Weather < > TMP - Temperature in Fahrenheit < > DP - Dew Point in Fahrenheit < > RH - Relative Humidity in Percent < > WIND - Direction (from) and Speed in MPH < > PRES - Mean Sea Level Pressure (inches of Hg) < > WCI - Wind Chill Index < > VSB - VISIBILITY IN MILES < > HX - HEAT INDEX < > TC - TEMPERATURE IN CELSIUS < > VRB - VARIABLE WIND DIRECTION < > < >>>>>>>>>>>>>>>>>>>>>>>>>>>> KEY <<<<<<<<<<<<<<<<<<<<<<<<<<<

USA.gov is the U.S. government's official web portal to all federal, state and local government web resources and services.